Location: Peebles
(55.6412°N, 3.1714°W)
Time: 16:11:37
(UTC+01:00)

USA 238 DEB - Pass Details

Date: 26 September 2021
Orbit: 980 x 1232 km, 63.4° (Epoch: 15 October)

Event Time Altitude Azimuth Distance (km) Brightness Sun altitude
Rises 21:35:49 0° 204° (SSW) 3,705 6.5 -21.7°
Reaches altitude 10° 21:38:25 10° 199° (SSW) 2,780 5.7 -22.0°
Maximum altitude 21:44:39 50° 126° (SE) 1,312 3.7 -22.8°
Drops below altitude 10° 21:51:17 10° 54° (NE) 2,948 5.8 -23.5°
Sets 21:54:06 0° 50° (NE) 3,947 6.5 -23.9°
